This is the latest recevied weather packets stored in our database for station/object K7DC. If no packets are shown the sender has not sent any weather packets the latest 10 day(s).
| Time | Temp. | Humidity | Pressure | Rain* | Wind** | Luminosity | Snow |
|---|---|---|---|---|---|---|---|
| 1788642888 | 39.44° C | 25% | 1014.6 hPa | 0 mm | - | 753 W/m² | - |
| 1788642583 | 38.89° C | 26% | 1014.4 hPa | 0 mm | - | 763 W/m² | - |
| 1788642279 | 39.44° C | 25% | 1014.6 hPa | 0 mm | - | 774 W/m² | - |
| 1788641978 | 38.33° C | 27% | 1014.8 hPa | 0 mm | - | 788 W/m² | - |
| 1788641673 | 39.44° C | 27% | 1014.8 hPa | 0 mm | - | 799 W/m² | - |
| 1788641372 | 38.89° C | 26% | 1015 hPa | 0 mm | - | 810 W/m² | - |
| 1788641068 | 38.89° C | 26% | 1015.1 hPa | 0 mm | - | 824 W/m² | - |
| 1788640767 | 39.44° C | 25% | 1015.2 hPa | 0 mm | - | 818 W/m² | - |
| 1788640462 | 39.44° C | 25% | 1015.1 hPa | 0 mm | - | 829 W/m² | - |
| 1788640158 | 38.89° C | 26% | 1015.2 hPa | 0 mm | - | 852 W/m² | - |
| 1788639853 | 38.89° C | 26% | 1015.2 hPa | 0 mm | - | 871 W/m² | - |
| 1788639548 | 39.44° C | 25% | 1015.3 hPa | 0 mm | - | 915 W/m² | - |
| 1788639244 | 39.44° C | 25% | 1015.5 hPa | 0 mm | - | 726 W/m² | - |
| 1788638943 | 38.33° C | 26% | 1015.5 hPa | 0 mm | - | 779 W/m² | - |
| 1788638639 | 38.89° C | 26% | 1015.5 hPa | 0 mm | - | 923 W/m² | - |
| 1788638337 | 37.78° C | 28% | 1015.5 hPa | 0 mm | - | 910 W/m² | - |
| 1788638033 | 37.78° C | 28% | 1015.6 hPa | 0 mm | - | 853 W/m² | - |
| 1788637728 | 38.89° C | 26% | 1015.7 hPa | 0 mm | - | 804 W/m² | - |
| 1788637428 | 38.89° C | 26% | 1015.7 hPa | 0 mm | - | 893 W/m² | - |
| 1788637128 | 38.89° C | 27% | 1015.9 hPa | 0 mm | - | 927 W/m² | - |
| 1788636822 | 38.33° C | 28% | 1015.9 hPa | 0 mm | - | 872 W/m² | - |
| 1788636518 | 37.22° C | 28% | 1015.9 hPa | 0 mm | - | 907 W/m² | - |
| 1788636214 | 37.78° C | 29% | 1016.1 hPa | 0 mm | - | 919 W/m² | - |
| 1788635913 | 37.78° C | 27% | 1016 hPa | 0 mm | - | 825 W/m² | - |
| 1788635612 | 37.78° C | 28% | 1016.4 hPa | 0 mm | - | 909 W/m² | - |
* Rain latest hour (hover to see other rain measurements)
** Current wind speed in m/s (hover to see current wind gust speed)